STARLINK-5467 (55660 NORAD) Tracking and Keplerian Element Data

This shows tracking and keplerian element data for the satellite.

Feedback or suggestion? Click here.




ElementValue
Catalog55660
NameSTARLINK-5467
Epoch Orbit130
Epoch Day62.91667824
Epoch Year2023
RAAN110.19
Inclination69.9999
Eccentricity0.0003463
Argument of Perigee273.0373
Mean Anonmoly330.413
Mean Motion15.75143704
Decay Rate-0.01020278
L11 55660U 23021AJ 23062.91667824 -.01020278 00000+0 -75201-2 0 9994
L22 55660 69.9999 110.1900 0003463 273.0373 330.4130 15.75143704 1303



Live tracking and technical data element details for STARLINK-5467 (NORAD 55660). STARLINK-5467 can be tracked NOW for your location showing map with azimuth and elevation plus other details from your city location.







IsCatalogInMostPopularTable: catalog: 55660, numindb: 1
Update: records affected: 1



GetName: 55660 STARLINK-5467

Hit Count: updated at: Wed, 22 Mar 2023 15:19:12 GMT